Location: Unspecified
(48.2082°N, 0.0000°E)
Time: 11:55:18
(UTC+00:00)

Altair - Pass Details

Date: 23 June 2019
Orbit: 1501 x 1683 km, 47.2° (Epoch: 19 July)

Event Time Altitude Azimuth Distance (km) Brightness Sun altitude
Rises 22:08:05 0° 266° (W) 4,750 10.4 -13.9°
Reaches altitude 10° 22:11:07 10° 267° (W) 3,790 9.9 -14.2°
Maximum altitude 22:20:50 86° 180° (S) 1,639 7.6 -14.8°
Drops below altitude 10° 22:30:56 10° 93° (E) 3,922 9.4 -15.5°
Sets 22:34:07 0° 93° (E) 4,922 9.9 -15.7°
